User: anonymous   Login
Location: Sobotiste
(48.7170°N, 17.4000°E)
Time: 19:01:02
(UTC+01:00)
Language:

DX 1 - Orbit

View from above orbital plane
View from above orbital plane
View from above satellite
View from above satellite

Ground track
Ground track

The orbit is defined by the following mean orbital elements,

1 40071U          26066.47492980 +.00000000 +00000-0 +29891-3 0 00000
2 40071  98.3761  22.1027 0005904 239.2239 120.8396 14.89608671    09
Epoch (UTC): 07 March 2026 11:23:53
Eccentricity: 0.0005904
inclination: 98.3761°
perigee height: 595 km
apogee height: 603 km
right ascension of ascending node: 22.1027°
argument of perigee: 239.2239°
revolutions per day: 14.89608671
mean anomaly at epoch: 120.8396°

The dashed part of the orbit path shows where the satellite is in the earth's shadow,  

DLR